Showing default

PRETTY, 58023

Orbit data source: Space-Track

PRETTY, 58023 is a payload satellite owned by TU Graz (AT) in SSO that was launched on Mon, 09 Oct 2023 UTC via a VEGA launch vehicle from the French Guiana (FRGUI). Payload-class satellites include a variety of spacecraft equipped with specific instruments for various scientific and technological missions. These include communications satellites like Starlink; space stations such as the ISS; scientific satellites like the Hubble; Earth observation satellites from companies like Planet Labs, Umbra, and HawkEye 360; GPS; miniature CubeSats for education and research; and military/defense satellites.

Loading next visibility...
Identifier
58023, 2023-155H
Orbit
SSO
Country
Flag of UnknownUnknown / ASRA
Related business
Manufacturer
Beyond Gravity AT
Mission
Operational Amateur Earth Obs Sci
Bus & Motor
CUBESAT 3U, Unknown motor
Mass
4 kg wet, 4 kg dry
Launch date (UTC)
2023-10-09 (2 years ago)
Launch vehicle
VEGA
Launch site
French Guiana (FRGUI)
Object type
Payload
Rocket body
Debris
Shape & HBR
Box + 2 Pan, 0.1 m
Radar Cross Section
0.035 m², Medium (>0.1 m² and < 1m²)

Expand to show TLE details & history
Last TLE update: 21 hours ago

TLE from 21 hours ago
0 PRETTY
1 58023U 23155H   25307.43614398  .00016216  00000-0  79744-3 0  9999
2 58023  97.5925  22.4635 0002799  95.1568 264.9985 15.18099151114021
Epoch: 2025-11-03T10:28Z
TLE epoch observation values (Epoch: 2025-11-03T10:28:02.839Z)
Latitude
-0.00005°
Longitude
-177.48587°
Altitude
514.837 km
Speed
7.606 km/s
True Right ascension
01h 29m 51s
True Declination
0° 00' 00"
Sunlit
Object was in full shadow at epoch
Visualization orbit readout
Latitude
Unknown
Longitude
Unknown
Altitude
Unknown
Speed
Unknown
Apparent Right ascension
Unknown
Apparent Declination
Unknown
Sunlit
N/A
Visualization observer readout
Local Sidereal Time
03:51:51
Azimuth
Unknown
Elevation
Unknown
Doppler factor
Unknown
Orbital elements
Apogee altitude
510.49 km
Perigee altitude
506.635 km
Semi-major axis
6,886.699 km
Eccentricity
0.00028
Inclination
97.5925°
RAAN
22.4635°
Arg. of periapsis
95.1568°
True anomaly
264.96655°
Mean anomaly
264.9985°
Eccentric anomaly
264.98252°
Mean motion
3.79775 °/min
Orbital period
94.79 mins
BSTAR
0.00079744
Loading maneuver chart data...
Computing Atmospheric mass density...
Loading historical data...
Loading historical data...
Loading historical data...
Loading historical data...
Loading historical data...
Loading historical data...
Loading historical data...

Documentation

Showing up to 5 results
|